sat.trackr.live / text

‹ back to catalog

STARLINK-35713

NORAD 66278 · 2025-247P

PAYLOAD ACTIVE UNKNOWN

§ Identity

Operator
Country
US
Launch date
2025-10-31
Launch site
AFWTR
Launch vehicle
Mass (kg)
RCS (m²)

Purposes: comms

External: N2YO · Heavens-Above · Gunter

§ Orbital elements

Epoch: 2026-09-20T12:54:14.724288Z

Period
93.85 min
Inclination
53.1612°
Eccentricity
0.0001248
Mean motion
15.34404476 rev/d
Perigee alt
461.8 km
Apogee alt
463.5 km
Semi-major
6,840.8 km
B*
7.2377e-4
RAAN
1.5803°
Arg perigee
87.7841°
Mean anomaly
272.3305°
Rev number
5,098

§ Raw data

STARLINK-357131 66278U 25247P   26263.53767042  .00024160  00000+0  72377-3 0  99932 66278  53.1612   1.5803 0001248  87.7841 272.3305 15.34404476 50988

JSON: /api/v1/satellites/66278 · /tle

For live sub-satellite position, see the globe view (requires WebGL).

§ Visibility from observer

Set your observer location to see the next 7 days of passes ≥ 10°. The values pass through the URL so the page stays shareable.

No JS? Fill the form by hand. The geolocation button needs JavaScript.